Location: Banios
(43.0451°N, 0.2335°E)
Time: 20:38:10
(UTC+00:00)

ATLAS CENTAUR R/B - Pass Details

Date: 25 January 2021
Orbit: 471 x 674 km, 64.6° (Epoch: 28 February)

Event Time Altitude Azimuth Distance (km) Brightness Sun altitude
Exits shadow 06:01:48 25° 257° (WSW) 1,002 2.1 -14.5°
Maximum altitude 06:03:24 39° 309° (NW) 725 1.5 -14.2°
Drops below altitude 10° 06:06:50 10° 20° (NNE) 1,642 3.8 -13.6°
Sets 06:09:04 0° 29° (NNE) 2,532 4.9 -13.2°
